Sekiu, WA (98381)

11:33 PM PDT on August 04, 2015 (GMT -0700)
Curley's Resort & Dive Center | | Change Station
CLOSE
Current Station
Personal Weather Station
Location: Sekiu, WA
Elevation: 12 ft
Nearby Weather Stations

Elev 12 ft 48.26 °N, 124.30 °W | Updated 1 minute ago

Overcast
Overcast
--
Feels Like --
N
-
Wind Variable Wind from North

Today
High -- | Low -- °F
--% Chance of Precip.
Yesterday
High -- | Low -- °F
Precip. -- in
5:56 AM 8:49 PM
Waning Gibbous, 70% visible
Pressure 30.07 in
Visibility 9.0 miles
Clouds Overcast 1300 ft
Dew Point Not available.
Humidity Not available.
Rainfall 0.00 in
Snow Depth Not available.
UV 0 out of 12
Pollen 4.40 out of 12
Air Quality Not available.
Flu Activity Not available.
SPECI KUIL 050617Z AUTO 00000KT 9SM OVC013 14/12 A3007 RMK AO2 T01390122

More Conditions Fewer Conditions

Pressure 30.07 in
Visibility 9.0 miles
Clouds Overcast 1300 ft
Dew Point Not available.
Humidity Not available.
Rainfall 0.00 in
Snow Depth Not available.
UV 0 out of 12
Pollen 4.40 out of 12
Air Quality Not available.
Flu Activity Not available.
SPECI KUIL 050617Z AUTO 00000KT 9SM OVC013 14/12 A3007 RMK AO2 T01390122

More Conditions Fewer Conditions

10-Day Weather Forecast

×

Almanac

Astronomy

Aug. 04, 2015 Rise Set
Actual Time
Civil Twilight
Nautical Twilight
Astronomical Twilight
Moon
Length of Visible Light
Length of Day
Tomorrow will be .
, % of the Moon is Illuminated

Today's Extremes

State Highs State Lows

Community

WunderPhotos

Upload Photos

1,844,105 photos uploaded!

WunderBlogs® & News

Nearby

Air Quality

  Air Quality AQ Index Pollutant
Not available.

Snow Depth

Station Depth Elevation

Earthquake Activity

City Distance Mag. Time & Date
Minimum magnitude displayed is 2.5.

Coastal Water Temperatures

Place Temperature

Stations

Nearby Weather Stations

Station Location Temp. Windchill Dew Point Humidity Wind Precip. Elev Updated Type